Location: Omaha
(41.2590°N, 95.9380°W)
Time: 01:13:59
(UTC-05:00)

Envisat - Pass Details

Date: 15 October 2017
Orbit: 764 x 766 km, 98.2° (Epoch: 22 October)

Event Time Altitude Azimuth Distance (km) Brightness Sun altitude
Exits shadow 20:23:15 30° 55° (NE) 1,339 3.8 -19.7°
Drops below altitude 10° 20:27:08 10° 7° (N) 2,310 5.5 -20.4°
Sets 20:29:39 0° 358° (N) 3,240 6.4 -20.9°
